FW7705 Weather Reports


Display with metric or nautical units.
time (UTC)temp
F
wind
direction
speed
MPH
gust
MPH
rain 1hr
in
rain 24hr
in
rain mn
in
humidity
%
barometer
mb
20260903035511 66 185 2.0 3.0 1.44 1.39 1.39 99 1017.3
20260903035007 67 184 2.0 4.0 0.92 1.29 1.29 99 1017.9
20260903034502 67 295 8.0 10.0 0.07 1.15 1.15 99 1018.5
20260903034001 67 280 3.0 3.0 0.05 1.14 1.14 99 1016.8
20260903033457 67 93 1.0 1.0 0.12 1.14 1.14 99 1015.3
20260903032952 66 115 1.0 1.0 0.07 1.13 1.13 99 1015.2
20260903032448 66 174 2.0 3.0 0.05 1.12 1.12 99 1015.1
20260903031943 66 110 0.0 1.0 0.05 1.12 1.12 99 1015.5
20260903031442 66 153 0.0 0.0 0.07 1.11 1.11 99 1015.8
20260903030937 65 171 0.0 0.0 0.12 1.11 1.11 99 1016.1
20260903030434 65 99 1.0 1.0 0.05 1.10 1.10 99 1016.1
20260903025929 65 79 1.0 2.0 0.07 1.09 1.09 99 1016.3
20260903025425 65 149 1.0 2.0 0.19 1.09 1.09 99 1016.4
20260903024921 65 202 1.0 1.0 0.12 1.08 1.08 99 1016.9
20260903024419 65 193 4.0 4.0 0.12 1.07 1.07 99 1017.3
20260903023914 65 191 1.0 2.0 0.12 1.06 1.06 99 1017.3
20260903023410 65 118 2.0 2.0 0.12 1.05 1.05 99 1017.4
20260903022906 64 210 2.0 2.0 0.19 1.04 1.04 99 1017.3
20260903022404 64 233 2.0 3.0 0.26 1.03 1.03 99 1017.1
20260903021903 64 148 0.0 0.0 0.24 1.01 1.01 99 1016.6
20260903021359 64 176 1.0 1.0 0.17 0.99 0.99 99 1016.6
20260903020858 64 136 0.0 1.0 0.17 0.97 0.97 99 1016.5
20260903020354 64 124 1.0 1.0 0.31 0.96 0.96 99 1017.1
20260903015848 64 130 0.0 1.0 0.85 0.94 0.94 98 1017.2
20260903015344 64 99 3.0 3.0 1.63 0.91 0.91 98 1018.3
20260903014840 65 181 2.0 2.0 2.72 0.83 0.83 97 1018.8
20260903014339 67 270 6.0 8.0 1.56 0.63 0.63 95 1020.1
20260903013834 68 268 10.0 15.0 0.05 0.38 0.38 98 1020.5
20260903013333 68 185 2.0 2.0 0.00 0.37 0.37 98 1017.5
20260903012833 68 176 0.0 0.0 0.00 0.37 0.37 98 1016.6
20260903012327 68 130 0.0 0.0 0.00 0.37 0.37 98 1016.8
20260903011826 68 144 1.0 1.0 0.00 0.37 0.37 98 1016.9
20260903011326 68 165 2.0 2.0 0.00 0.37 0.37 98 1017.3
20260903010821 68 94 2.0 2.0 0.00 0.37 0.37 98 1017.2
20260903010317 69 157 0.0 0.0 0.00 0.37 0.37 98 1016.8
20260903005815 69 77 1.0 1.0 0.00 0.37 0.37 98 1016.5
20260903005310 69 171 1.0 2.0 0.07 0.37 0.37 97 1016.2
20260903004806 69 127 1.0 2.0 0.07 0.37 0.37 97 1016.0
20260903004301 69 143 0.0 2.0 0.07 0.37 0.37 97 1016.1
20260903003757 69 143 2.0 3.0 0.00 0.36 0.36 97 1016.0
20260903003252 69 76 2.0 3.0 0.00 0.36 0.36 97 1016.0
20260903002747 69 114 0.0 1.0 0.00 0.36 0.36 97 1016.3
20260903002240 69 343 2.0 3.0 0.00 0.36 0.36 97 1016.0
20260903001736 69 40 1.0 1.0 0.00 0.36 0.36 97 1016.1
20260903001230 69 137 2.0 3.0 0.00 0.36 0.36 97 1016.3
20260903000725 69 143 0.0 0.0 0.00 0.36 0.36 97 1016.1
20260903000226 69 71 1.0 1.0 0.00 0.36 0.36 97 1016.1
20260902235724 69 147 1.0 2.0 0.00 0.36 0.36 97 1016.3
20260902235219 69 170 2.0 2.0 0.00 0.36 0.36 97 1016.6
20260902234718 69 165 1.0 1.0 0.00 0.36 0.36 97 1016.2
20260902234217 69 215 1.0 1.0 0.00 0.36 0.36 97 1016.0
20260902233717 69 169 2.0 2.0 0.00 0.36 0.36 97 1016.0
20260902233212 69 74 1.0 1.0 0.00 0.36 0.36 97 1016.1
20260902232711 69 162 0.0 1.0 0.00 0.36 0.36 97 1016.0
20260902232211 69 144 2.0 2.0 0.00 0.36 0.36 97 1016.4
20260902231705 69 130 0.0 1.0 0.00 0.36 0.36 97 1016.6
20260902231205 69 173 1.0 2.0 0.00 0.36 0.36 97 1016.4
20260902230701 69 36 1.0 2.0 0.00 0.36 0.36 97 1016.5
20260902230200 69 135 0.0 0.0 0.00 0.36 0.36 97 1016.1
20260902225655 69 344 2.0 2.0 0.00 0.36 0.36 96 1016.2
20260902225154 69 100 0.0 1.0 0.00 0.36 0.36 96 1016.0
20260902224653 70 132 1.0 1.0 0.00 0.36 0.36 96 1016.0
20260902224149 70 176 1.0 2.0 0.00 0.36 0.36 96 1016.0
20260902223645 70 65 1.0 2.0 0.00 0.36 0.36 96 1016.2
20260902223144 70 122 0.0 1.0 0.00 0.36 0.36 96 1016.2
20260902222643 70 66 1.0 2.0 0.00 0.36 0.36 96 1016.0
20260902222142 70 120 3.0 3.0 0.00 0.36 0.36 96 1015.9
20260902221636 70 142 0.0 1.0 0.00 0.36 0.36 96 1016.2
20260902221131 70 115 1.0 1.0 0.00 0.36 0.36 96 1016.0
20260902220627 70 86 1.0 1.0 0.00 0.36 0.36 96 1016.1
20260902220121 70 63 0.0 1.0 0.00 0.36 0.36 96 1016.3
20260902215617 70 97 1.0 1.0 0.00 0.36 0.36 96 1016.6
20260902215112 70 313 1.0 1.0 0.00 0.36 0.36 96 1016.6
20260902214607 70 194 0.0 0.0 0.00 0.36 0.36 96 1016.9
20260902214106 70 156 2.0 2.0 0.00 0.36 0.36 96 1016.8
20260902213602 70 191 1.0 1.0 0.00 0.36 0.36 96 1017.0
20260902213101 70 190 0.0 0.0 0.00 0.36 0.36 96 1016.8
20260902212557 70 197 2.0 2.0 0.00 0.36 0.36 96 1017.0
20260902212053 70 275 1.0 2.0 0.00 0.36 0.36 96 1017.0
20260902211549 70 200 1.0 1.0 0.00 0.36 0.36 96 1016.9
20260902211043 70 220 1.0 2.0 0.00 0.36 0.36 96 1017.3
20260902210538 70 135 0.0 0.0 0.00 0.36 0.36 95 1017.1
20260902210037 70 93 0.0 1.0 0.00 0.36 0.36 95 1017.2
20260902205537 71 121 0.0 1.0 0.00 0.36 0.36 95 1017.2
20260902205032 71 145 4.0 7.0 0.00 0.36 0.36 95 1017.0
20260902204532 71 74 1.0 2.0 0.00 0.36 0.36 95 1017.0
20260902204027 71 86 3.0 4.0 0.00 0.36 0.36 94 1016.8
20260902203523 71 200 2.0 2.0 0.00 0.36 0.36 94 1016.8
20260902203022 71 95 2.0 2.0 0.00 0.36 0.36 95 1016.9
20260902202518 71 57 1.0 1.0 0.00 0.36 0.36 95 1016.5
20260902202014 71 234 2.0 3.0 0.00 0.36 0.36 95 1016.8
20260902201509 71 107 3.0 4.0 0.00 0.36 0.36 95 1017.0
20260902201003 71 183 2.0 3.0 0.00 0.36 0.36 95 1016.5
20260902200458 71 323 0.0 1.0 0.00 0.36 0.36 95 1017.1
20260902195954 70 227 2.0 3.0 0.00 0.36 0.36 95 1017.2
20260902195450 70 175 1.0 2.0 0.00 0.36 0.36 96 1017.2
20260902194949 70 198 1.0 2.0 0.00 0.36 0.36 95 1017.1
20260902194449 70 205 3.0 4.0 0.00 0.36 0.36 95 1017.1
20260902193944 71 178 1.0 1.0 0.00 0.36 0.36 95 1017.3
20260902193440 71 163 2.0 3.0 0.00 0.36 0.36 95 1017.6
20260902192938 71 156 0.0 1.0 0.00 0.36 0.36 95 1017.7
20260902192437 70 147 1.0 1.0 0.00 0.36 0.36 95 1017.8
20260902191936 70 155 0.0 0.0 0.00 0.36 0.36 95 1017.6
20260902191432 70 169 1.0 2.0 0.00 0.36 0.36 95 1017.8
20260902190927 70 87 2.0 2.0 0.00 0.36 0.36 95 1017.8
20260902190422 70 144 2.0 2.0 0.00 0.36 0.36 96 1017.9
20260902185918 70 266 2.0 2.0 0.00 0.36 0.36 95 1017.8
20260902185414 70 85 0.0 0.0 0.00 0.36 0.36 95 1017.6
20260902184909 70 146 1.0 2.0 0.00 0.36 0.36 95 1017.9
20260902184404 70 179 0.0 1.0 0.00 0.36 0.36 95 1017.9
20260902183900 70 136 1.0 1.0 0.00 0.36 0.36 96 1018.0
20260902183356 70 100 0.0 0.0 0.00 0.36 0.36 95 1017.8
20260902182851 70 156 2.0 3.0 0.00 0.36 0.36 95 1017.8
20260902182348 70 147 1.0 2.0 0.00 0.36 0.36 95 1017.8
20260902181844 70 68 1.0 2.0 0.00 0.36 0.36 95 1017.7
20260902181340 70 93 1.0 1.0 0.00 0.36 0.36 95 1017.8
20260902180838 70 191 2.0 2.0 0.00 0.36 0.36 95 1018.1
20260902180335 69 35 1.0 1.0 0.00 0.36 0.36 96 1018.2
20260902175830 70 264 2.0 3.0 0.00 0.36 0.36 96 1018.2
20260902175325 70 163 2.0 3.0 0.00 0.36 0.36 96 1018.1
20260902174820 69 270 2.0 3.0 0.00 0.36 0.36 97 1018.2
20260902174317 69 81 1.0 2.0 0.00 0.36 0.36 96 1018.4
20260902173813 69 88 1.0 2.0 0.00 0.36 0.36 96 1018.5
20260902173307 69 147 2.0 2.0 0.00 0.36 0.36 97 1018.6
20260902172806 69 74 1.0 2.0 0.00 0.36 0.36 97 1018.4
20260902172301 69 78 1.0 1.0 0.00 0.36 0.36 97 1018.7
20260902171756 69 141 2.0 2.0 0.00 0.36 0.36 97 1018.7
20260902171251 69 90 0.0 1.0 0.00 0.36 0.36 97 1018.7
20260902170748 69 72 1.0 1.0 0.00 0.36 0.36 98 1018.7
20260902170242 69 121 0.0 1.0 0.00 0.36 0.36 98 1018.8
20260902165738 69 69 2.0 2.0 0.00 0.36 0.36 98 1018.9
20260902165232 69 127 1.0 1.0 0.00 0.36 0.36 98 1018.7
20260902164727 69 91 2.0 3.0 0.00 0.36 0.36 98 1018.7
20260902164227 69 133 2.0 2.0 0.00 0.36 0.36 99 1018.8
20260902163722 69 64 1.0 2.0 0.00 0.36 0.36 99 1018.9
20260902163221 69 106 0.0 1.0 0.00 0.36 0.36 99 1019.1
20260902162719 69 96 0.0 1.0 0.00 0.36 0.36 99 1019.1
20260902162214 69 102 2.0 2.0 0.00 0.36 0.36 99 1019.3
20260902161709 70 129 3.0 3.0 0.00 0.36 0.36 99 1019.1
20260902161205 70 97 0.0 1.0 0.00 0.36 0.36 99 1019.1
20260902160702 70 80 1.0 1.0 0.00 0.36 0.36 99 1019.0
20260902160156 71 106 1.0 1.0 0.00 0.36 0.36 99 1018.8
20260902155654 71 110 0.0 1.0 0.00 0.36 0.36 99 1018.7
20260902155153 71 97 1.0 1.0 0.00 0.36 0.36 99 1018.6
20260902154649 70 140 1.0 1.0 0.12 0.36 0.36 99 1018.3
20260902154148 70 87 2.0 4.0 0.24 0.36 0.36 99 1018.3
20260902153648 70 114 1.0 2.0 0.24 0.35 0.35 99 1018.6
20260902153143 70 81 1.0 1.0 0.19 0.33 0.33 99 1018.7
20260902152639 69 95 1.0 1.0 0.12 0.31 0.31 99 1018.6
20260902152135 69 131 1.0 2.0 0.12 0.30 0.30 99 1018.7
20260902151631 69 309 0.0 1.0 0.14 0.29 0.29 99 1019.0
20260902151131 69 135 1.0 1.0 0.19 0.28 0.28 99 1018.9
20260902150626 69 267 3.0 3.0 0.24 0.27 0.27 99 1018.8
20260902150121 69 138 0.0 1.0 0.17 0.25 0.25 99 1018.7
20260902145621 69 236 1.0 1.0 0.12 0.23 0.23 99 1018.3
20260902145121 69 137 1.0 2.0 0.12 0.22 0.22 99 1018.5
20260902144618 69 140 1.0 1.0 0.12 0.21 0.21 99 1018.2
20260902144118 69 276 4.0 6.0 0.66 0.20 0.20 99 1018.0
20260902143613 69 194 1.0 2.0 0.78 0.19 0.19 99 1017.9
20260902143108 70 304 3.0 3.0 0.35 0.11 0.11 99 1018.5
20260902142605 70 255 2.0 3.0 0.12 0.06 0.06 99 1018.5
20260902142059 70 178 2.0 3.0 0.07 0.05 0.05 99 1018.2
20260902141559 70 262 1.0 2.0 0.12 0.04 0.04 99 1018.1
20260902141054 70 100 1.0 2.0 0.24 0.04 0.04 99 1018.1
20260902140549 70 125 1.0 1.0 0.12 0.02 0.02 99 1018.4
20260902140045 70 192 1.0 1.0 0.00 0.00 0.00 99 1018.8
20260902135544 70 150 0.0 0.0 0.00 0.00 0.00 99 1018.7
20260902135044 70 145 1.0 1.0 0.00 0.00 0.00 99 1018.9
20260902134540 70 194 1.0 1.0 0.00 0.00 0.00 99 1019.1
20260902134040 70 225 2.0 2.0 0.00 0.00 0.00 99 1019.0
20260902133535 70 180 0.0 0.0 0.00 0.00 0.00 99 1018.9
20260902133029 70 181 0.0 1.0 0.00 0.00 0.00 99 1018.7
20260902132524 70 272 2.0 2.0 0.00 0.00 0.00 99 1018.7
20260902132020 70 146 0.0 1.0 0.00 0.00 0.00 99 1017.9
20260902131516 70 151 1.0 1.0 0.00 0.00 0.00 99 1018.2
20260902131016 70 128 0.0 0.0 0.00 0.00 0.00 99 1018.3
20260902130512 70 185 0.0 1.0 0.00 0.00 0.00 99 1018.4
20260902130007 70 236 2.0 3.0 0.00 0.00 0.00 99 1018.4
20260902125503 70 158 0.0 0.0 0.00 0.00 0.00 99 1018.3
20260902124958 70 179 1.0 1.0 0.00 0.00 0.00 99 1018.4
20260902124454 70 141 1.0 1.0 0.00 0.00 0.00 99 1018.3
20260902123949 70 138 0.0 1.0 0.00 0.00 0.00 99 1018.4
20260902123445 70 208 0.0 0.0 0.00 0.00 0.00 99 1018.2
20260902122943 70 154 1.0 1.0 0.00 0.00 0.00 99 1018.4
20260902122435 70 258 2.0 2.0 0.00 0.00 0.00 99 1018.0
20260902121930 70 126 0.0 1.0 0.00 0.00 0.00 99 1018.0
20260902121424 70 79 1.0 1.0 0.00 0.00 0.00 99 1018.2
20260902120924 70 148 0.0 0.0 0.00 0.00 0.00 99 1017.7
20260902120421 70 169 1.0 1.0 0.00 0.00 0.00 99 1018.0
20260902115920 70 191 1.0 1.0 0.00 0.00 0.00 99 1017.9
20260902115416 70 189 0.0 1.0 0.00 0.00 0.00 99 1017.9
20260902114914 70 165 1.0 1.0 0.00 0.00 0.00 99 1018.2
20260902114409 69 130 0.0 0.0 0.00 0.00 0.00 99 1017.9
20260902113909 69 147 1.0 1.0 0.00 0.00 0.00 99 1017.7
20260902113404 69 204 1.0 2.0 0.00 0.00 0.00 99 1017.7
20260902112904 69 114 0.0 0.0 0.00 0.00 0.00 99 1017.6
20260902112400 69 140 0.0 1.0 0.00 0.00 0.00 99 1017.7
20260902111855 69 136 1.0 1.0 0.00 0.00 0.00 99 1017.7
20260902111352 69 168 1.0 2.0 0.00 0.00 0.00 99 1017.6
20260902110847 69 168 1.0 1.0 0.00 0.00 0.00 99 1017.6
20260902110343 69 150 1.0 1.0 0.00 0.00 0.00 99 1017.5
20260902105843 69 137 0.0 0.0 0.00 0.00 0.00 99 1017.6
20260902105338 69 109 0.0 0.0 0.00 0.00 0.00 99 1017.4
20260902104833 69 129 0.0 0.0 0.00 0.00 0.00 99 1017.5
20260902104329 69 133 0.0 0.0 0.00 0.00 0.00 99 1017.4
20260902103824 69 40 0.0 0.0 0.00 0.00 0.00 99 1018.0
20260902103318 69 40 0.0 0.0 0.00 0.00 0.00 99 1017.9
20260902102813 68 40 0.0 0.0 0.00 0.00 0.00 99 1017.8
20260902102311 68 40 0.0 0.0 0.00 0.00 0.00 99 1017.9
20260902101806 68 40 0.0 1.0 0.00 0.00 0.00 99 1018.1
20260902101301 68 40 1.0 1.0 0.00 0.00 0.00 99 1017.8
20260902100801 68 40 1.0 1.0 0.00 0.00 0.00 99 1017.8
20260902100300 68 40 1.0 1.0 0.00 0.00 0.00 99 1018.1
20260902095755 68 41 1.0 1.0 0.00 0.00 0.00 99 1017.8
20260902095256 68 41 1.0 1.0 0.00 0.00 0.00 99 1017.9
20260902094750 68 41 1.0 1.0 0.00 0.00 0.00 99 1018.0
20260902094246 68 53 0.0 1.0 0.00 0.00 0.00 99 1017.8
20260902093746 68 54 1.0 1.0 0.00 0.00 0.00 99 1017.8
20260902093241 68 55 0.0 0.0 0.00 0.00 0.00 99 1017.8
20260902092740 68 55 0.0 0.0 0.00 0.00 0.00 99 1017.9
20260902092236 68 15 1.0 1.0 0.00 0.00 0.00 99 1017.9
20260902091735 68 23 0.0 0.0 0.00 0.00 0.00 99 1017.8
20260902091232 68 53 0.0 1.0 0.00 0.00 0.00 99 1017.6
20260902090728 68 53 0.0 0.0 0.00 0.00 0.00 99 1017.9
20260902090227 68 53 0.0 0.0 0.00 0.00 0.00 99 1018.0
20260902085721 68 53 0.0 0.0 0.00 0.00 0.00 99 1018.0
20260902085217 68 53 0.0 0.0 0.00 0.00 0.00 99 1018.2
20260902084713 68 54 1.0 1.0 0.00 0.00 0.00 99 1018.0
20260902084209 68 54 0.0 0.0 0.00 0.00 0.00 99 1018.0
20260902083708 68 55 1.0 1.0 0.00 0.00 0.00 99 1018.0
20260902083203 68 55 1.0 1.0 0.00 0.00 0.00 99 1017.9
20260902082658 68 55 0.0 0.0 0.00 0.00 0.00 99 1018.0
20260902082154 68 55 0.0 0.0 0.00 0.00 0.00 99 1018.0
20260902081650 68 55 0.0 0.0 0.00 0.00 0.00 99 1017.8
20260902081145 68 55 0.0 0.0 0.00 0.00 0.00 99 1017.6
20260902080640 68 55 0.0 0.0 0.00 0.00 0.00 99 1017.6
20260902080137 67 55 0.0 0.0 0.00 0.00 0.00 99 1017.7
20260902075636 67 55 0.0 0.0 0.00 0.00 0.00 99 1017.7
20260902075127 67 55 0.0 0.0 0.00 0.00 0.00 99 1017.7
20260902074622 67 55 0.0 0.0 0.00 0.00 0.00 99 1017.5
20260902074117 67 55 0.0 0.0 0.00 0.00 0.00 99 1017.5
20260902073613 67 55 0.0 0.0 0.00 0.00 0.00 99 1017.5
20260902073109 67 55 0.0 0.0 0.00 0.00 0.00 99 1017.6
20260902072604 67 55 0.0 0.0 0.00 0.00 0.00 99 1017.6
20260902072101 68 55 0.0 0.0 0.00 0.00 0.00 99 1017.7
20260902071600 68 55 0.0 0.0 0.00 0.00 0.00 99 1017.4
20260902071056 68 55 0.0 0.0 0.00 0.00 0.00 99 1017.4
20260902070552 68 55 0.0 0.0 0.00 0.00 0.00 99 1017.5
20260902070047 67 55 0.0 0.0 0.00 0.00 0.00 99 1017.6
20260902065546 67 55 0.0 0.0 0.00 0.00 0.00 99 1017.6
20260902065042 67 55 0.0 0.0 0.00 0.00 0.00 99 1017.8
20260902064538 67 55 0.0 0.0 0.00 0.00 0.00 99 1017.9
20260902064033 67 55 1.0 1.0 0.00 0.00 0.00 99 1017.8
20260902063532 68 55 0.0 0.0 0.00 0.00 0.00 99 1017.7
20260902063028 68 55 0.0 0.0 0.00 0.00 0.00 99 1017.9
20260902062526 68 55 0.0 0.0 0.00 0.00 0.00 99 1017.6
20260902062023 68 55 0.0 0.0 0.00 0.00 0.00 99 1017.9
20260902061522 68 55 0.0 0.0 0.00 0.00 0.00 99 1017.9
20260902061018 68 55 0.0 0.0 0.00 0.00 0.00 99 1017.9
20260902060515 67 55 0.0 0.0 0.00 0.00 0.00 99 1018.1
20260902060011 67 55 0.0 0.0 0.00 0.00 0.00 99 1017.9
20260902055506 67 55 0.0 0.0 0.00 0.00 0.00 99 1017.9
20260902055001 67 55 0.0 0.0 0.00 0.00 0.00 99 1017.9
20260902054456 67 55 0.0 0.0 0.00 0.00 0.00 99 1018.0
20260902053951 67 55 0.0 0.0 0.00 0.00 0.00 99 1017.8
20260902053446 67 55 0.0 0.0 0.00 0.00 0.00 99 1017.8
20260902052946 67 55 0.0 0.0 0.00 0.00 0.00 99 1017.9
20260902052446 67 55 0.0 0.0 0.00 0.00 0.00 99 1017.9
20260902051941 67 55 1.0 1.0 0.00 0.00 0.00 99 1017.8
20260902051436 67 55 0.0 0.0 0.00 0.00 0.00 99 1017.7
20260902050935 66 55 0.0 0.0 0.00 0.00 0.00 99 1017.8
20260902050435 66 55 0.0 0.0 0.00 0.00 0.00 99 1017.7
20260902045930 66 55 0.0 0.0 0.00 0.00 0.00 99 1017.7
20260902045425 67 55 0.0 0.0 0.00 0.00 0.00 99 1017.4
20260902044922 67 55 0.0 1.0 0.00 0.00 0.00 99 1017.5
20260902044417 67 55 0.0 0.0 0.00 0.00 0.00 99 1017.6
20260902043912 67 55 0.0 0.0 0.00 0.00 0.00 99 1017.3
20260902043407 67 55 0.0 0.0 0.00 0.00 0.00 99 1017.5
20260902042902 67 55 0.0 0.0 0.00 0.00 0.00 99 1017.5
20260902042401 67 55 0.0 0.0 0.00 0.00 0.00 99 1017.4
20260902041857 67 55 0.0 0.0 0.00 0.00 0.00 99 1017.3
20260902041357 68 55 0.0 0.0 0.00 0.00 0.00 99 1017.5
20260902040856 68 55 0.0 1.0 0.00 0.00 0.00 99 1017.1
20260902040352 68 55 0.0 0.0 0.00 0.00 0.00 99 1017.2
20260902035850 68 55 1.0 1.0 0.00 0.23 0.23 99 1017.4